This is the latest recevied weather packets stored in our database for station/object NO9B. If no packets are shown the sender has not sent any weather packets the latest 10 day(s).
| Time | Temp. | Humidity | Pressure | Rain* | Wind** | Luminosity | Snow |
|---|---|---|---|---|---|---|---|
| 1787674163 | 24.44° C | 61% | 1021.6 hPa | 0 mm | - | 37 W/m² | - |
| 1787673857 | 24.44° C | 61% | 1021.7 hPa | 0 mm | - | 40 W/m² | - |
| 1787673553 | 24.44° C | 65% | 1021.7 hPa | 0 mm | - | 41 W/m² | - |
| 1787673253 | 23.89° C | 64% | 1021.6 hPa | 0 mm | - | 41 W/m² | - |
| 1787672952 | 23.89° C | 65% | 1021.6 hPa | 0 mm | - | 43 W/m² | - |
| 1787672648 | 23.89° C | 63% | 1021.8 hPa | 0 mm | - | 47 W/m² | - |
| 1787672347 | 23.89° C | 65% | 1021.9 hPa | 0 mm | - | 48 W/m² | - |
| 1787672043 | 23.89° C | 66% | 1021.9 hPa | 0 mm | - | 53 W/m² | - |
| 1787671742 | 23.89° C | 65% | 1021.8 hPa | 0 mm | - | 60 W/m² | - |
| 1787671437 | 23.33° C | 64% | 1021.8 hPa | 0 mm | - | 68 W/m² | - |
| 1787671132 | 23.33° C | 65% | 1021.8 hPa | 0 mm | - | 70 W/m² | - |
| 1787670828 | 23.33° C | 67% | 1021.6 hPa | 0 mm | - | 69 W/m² | - |
| 1787670528 | 23.33° C | 70% | 1021.6 hPa | 0 mm | - | 56 W/m² | - |
| 1787670222 | 22.78° C | 69% | 1021.5 hPa | 0 mm | - | 45 W/m² | - |
| 1787669922 | 22.78° C | 69% | 1021.6 hPa | 0 mm | - | 37 W/m² | - |
| 1787669617 | 22.78° C | 70% | 1021.8 hPa | 0 mm | - | 33 W/m² | - |
| 1787669312 | 22.78° C | 70% | 1021.5 hPa | 0 mm | - | 33 W/m² | - |
| 1787669008 | 22.22° C | 70% | 1021.6 hPa | 0 mm | - | 29 W/m² | - |
| 1787668704 | 22.22° C | 72% | 1021.6 hPa | 0 mm | - | 26 W/m² | - |
| 1787668400 | 22.22° C | 71% | 1021.6 hPa | 0 mm | - | 25 W/m² | - |
| 1787668100 | 21.67° C | 72% | 1021.5 hPa | 0 mm | - | 23 W/m² | - |
| 1787667795 | 21.67° C | 73% | 1021.5 hPa | 0 mm | - | 22 W/m² | - |
| 1787667491 | 21.67° C | 72% | 1021.6 hPa | 0 mm | - | 21 W/m² | - |
| 1787667186 | 21.67° C | 72% | 1021.4 hPa | 0 mm | - | 21 W/m² | - |
| 1787666881 | 21.11° C | 73% | 1021.7 hPa | 0 mm | - | 20 W/m² | - |
* Rain latest hour (hover to see other rain measurements)
** Current wind speed in m/s (hover to see current wind gust speed)